Otrokiv

Ukraine / Khmelnitsky District     48˚48′41″N   27˚06′46″E
temp.,
°C
wind,
m/s
gust,
m/s
humid.,
%
clouds,
%
prec.,
mm/h
press.,
hPa
HPBL,
m
2 december, wed
wed223:00−4˚nne24850 0.0 1028128
02:00−4˚ne249119 0.0 1028124
05:00−4˚ne239638 0.0 102782
08:00−3˚ne239565 0.1 1027111
11:00−1˚e238488 0.0 1027329
14:00se237990 0.0 1025508
17:00−1˚se3485100 0.0 1025304
20:00−1˚se3583100 0.0 1025451
3 december, thu
thu323:00−2˚se379564 0.0 1025200
02:00−1˚se488965 0.0 1024485
05:00−1˚se4989100 0.0 1023393
08:00se51197100 0.0 1023453
11:00+2˚se61187100 0.0 1022754
14:00+2˚se71186100 0.0 1020747
17:00+1˚se51196100 0.0 1019389
20:00+2˚se6119799 0.0 1019532
4 december, fri
fri423:00+2˚se51396100 0.0 1018614
02:00+2˚se7119699 0.0 1017564
05:00+2˚sse81392100 0.0 1016716
08:00+4˚se71588100 0.0 1016787
11:00+6˚se101677100 0.0 1016925
14:00+9˚sse10166994 0.0 10141090
17:00+8˚se9168790 0.0 1015914
20:00+7˚se10168796 0.0 1017854
5 december, sat
sat523:00+7˚se91687100 0.0 1017772
02:00+7˚se91588100 0.0 1018767
05:00+6˚se91588100 0.0 1018762
08:00+6˚se9159099 0.0 1019710
11:00+6˚se91485100 0.0 1020766
14:00+7˚se91481100 0.0 1020803
17:00+5˚se9158492 0.0 1021645
20:00+4˚se8158692 0.0 1022595
6 december, sun
sun623:00+3˚se8148577 0.0 1023606
02:00+2˚se8128589 0.0 1023643
05:00+2˚se81387100 0.0 1023736
08:00+2˚se81384100 0.0 1023753
11:00+2˚se91282100 0.0 1023766
14:00+2˚se81278100 0.0 1022796
17:00+1˚se91577100 0.0 1022584
20:00+1˚se101579100 0.0 1022650